Weather History for George, South Africa

Change the Weather History Date:

Sunday, January 13, 2013

  Actual Average Record
Temperature  
Mean Temperature 72 °F -  
Max Temperature 89 °F 74 °F - (-1)
Min Temperature 56 °F 58 °F - (-1)
Cooling Degree Days 8    
Growing Degree Days 22 (Base 50)    
Moisture  
Dew Point 57 °F    
Average Humidity 59    
Maximum Humidity 100    
Minimum Humidity 20    
Precipitation  
Precipitation 0.00 in - - ()
Sea Level Pressure  
Sea Level Pressure 29.77 in    
Wind  
Wind Speed 5 mph ()    
Max Wind Speed 12 mph    
Max Gust Speed -    
Visibility 9.6 miles    
Events      
Averages and records for this station are not official NWS values.
T = Trace of Precipitation, MM = Missing Value Source: Averaged Metar Reports

Daily Weather History Graph

Daily Weather History Graph

Search for Another Location

Airport:

Trip Planner

Search our weather history database for the weather conditions in past years. The results will help you decide how hot, cold, wet, or windy it might be!

Date:

Astronomy

Jan. 13, 2013 Rise Set
Actual Time 5:33 AM SAST 7:45 PM SAST
Civil Twilight 5:04 AM SAST 8:13 PM SAST
Nautical Twilight 4:29 AM SAST 8:48 PM SAST
Astronomical Twilight 3:52 AM SAST 9:25 PM SAST
Moon 7:19 AM SAST (1/13) 8:48 PM SAST (1/13)
Length of Visible Light 15h 08m
Length of Day
14h 11m
Waxing Crescent, 4% of the Moon is Illuminated
Jan 13
Waxing Crescent
Jan 19
First Quarter
Jan 27
Full
Feb 3
Last Quarter
Feb 10
New

Hourly Weather History & Observations

Time (SAST) Temp. Heat Index Dew Point Humidity Pressure Visibility Wind Dir Wind Speed Gust Speed Precip Events Conditions
12:00 AM 60.8 °F - 59.0 °F 94% 29.92 in 5.0 mi North 3.5 mph - N/A   Unknown
2:00 AM 62 °F - 60 °F 91% 29.88 in 0 mi WNW 4.6 mph - -  
4:00 AM 57.2 °F - 57.2 °F 100% 29.83 in - Variable 1.2 mph - N/A   Clear
5:00 AM 58 °F - 56 °F 91% 29.84 in 12 mi North 3.5 mph - -  
5:00 AM 59.0 °F - 57.2 °F 94% 29.83 in - North 2.3 mph - N/A   Clear
6:00 AM 57.2 °F - 55.4 °F 94% 29.83 in - Variable 2.3 mph - N/A   Clear
7:00 AM 60.8 °F - 59.0 °F 94% 29.80 in - Variable 1.2 mph - N/A   Clear
8:00 AM 67 °F - 63 °F 82% 29.79 in 12 mi 1.2 mph - -  
8:00 AM 68.0 °F - 62.6 °F 83% 29.80 in - Variable 1.2 mph - N/A   Clear
9:00 AM 75.2 °F - 62.6 °F 65% 29.77 in - South 3.5 mph - N/A   Clear
10:00 AM 80.6 °F 81.8 °F 62.6 °F 54% 29.74 in - Variable 3.5 mph - N/A   Clear
11:00 AM 83 °F - 60 °F 35% 29.71 in 12 mi South 5.8 mph - -  
11:00 AM 84.2 °F 84.4 °F 60.8 °F 45% 29.74 in - South 5.8 mph - N/A   Clear
12:00 PM 86.0 °F 84.2 °F 53.6 °F 33% 29.71 in - South 6.9 mph - N/A   Clear
1:00 PM 86.0 °F 84.5 °F 55.4 °F 35% 29.71 in - South 9.2 mph - N/A   Clear
2:00 PM 88 °F - 53 °F 20% 29.70 in 12 mi SE 8.1 mph - -  
2:00 PM 87.8 °F - 51.8 °F 29% 29.68 in - SE 8.1 mph - N/A   Clear
3:00 PM 87.8 °F - 50.0 °F 27% 29.68 in - SSE 10.4 mph - N/A   Clear
4:00 PM 86.0 °F - 50.0 °F 29% 29.68 in - SE 10.4 mph - N/A   Clear
5:00 PM 85 °F - 50 °F 20% 29.69 in 12 mi SSE 11.5 mph - -  
5:00 PM 86.0 °F - 50.0 °F 29% 29.68 in - SSE 11.5 mph - N/A   Clear
6:00 PM 80.6 °F 80.8 °F 57.2 °F 45% 29.71 in - South 5.8 mph - N/A   Clear
7:00 PM 80.6 °F - 50.0 °F 34% 29.74 in - West 4.6 mph - N/A   Clear
8:00 PM 76 °F - 50 °F 30% 29.80 in 12 mi West 9.2 mph - -  
8:00 PM 75.2 °F - 50.0 °F 41% 29.80 in - West 9.2 mph - N/A   Clear
9:00 PM 69.8 °F - 62.6 °F 78% 29.80 in - SW 8.1 mph - N/A   Clear
10:00 PM 68.0 °F - 62.6 °F 83% 29.83 in - WSW 11.5 mph - N/A   Clear
11:00 PM 66.2 °F - 60.8 °F 83% 29.86 in - West 10.4 mph - N/A   Clear